Powrót do katalogu

ESSAIM-1

AktywnyMilitariaSSO
NORAD 28494·PAYLOAD·🇫🇷 France

Wystrzelony Dec 18, 2004 z Guiana Space Centre

Loading…

Następne Przeloty (najbliższe 24 godziny)

TLE

ŚwieżeSource: Space-Track

Epoka: Sep 14, 2026, 15:04 UTC

1 28494U 04049C   26257.62827532  .00000755  00000-0  92189-4 0  9991
2 28494  98.2886 130.5742 0001687  92.1029 268.0379 14.86453994171576

Śledź ESSAIM-1 w czasie rzeczywistym z AllMySat

Download on the App Store